User: anonymous   Login
Location: Poughquag
(41.6090°N, 73.6820°W)
Time: 06:43:35
(UTC-05:00)
Language:

Hubble Space Telescope - Orbit

View from above orbital plane
View from above orbital plane
View from above satellite
View from above satellite

Ground track
Ground track

The orbit data is extracted from the following two-line orbital elements,

1 20580U 90037B   19348.07317130  .00000380  00000-0  12158-4 0  9993
2 20580  28.4689 112.3260 0002514 244.5787  94.8879 15.09311555427865
Epoch (UTC): 14 December 2019 01:45:22
Eccentricity: 0.0002514
inclination: 28.4689°
perigee height: 536 km
apogee height: 540 km
right ascension of ascending node: 112.3260°
argument of perigee: 244.5787°
revolutions per day: 15.09311555
mean anomaly at epoch: 94.8879°
orbit number at epoch: 42786

The dashed part of the orbit path shows where the satellite is in the earth's shadow,  

DLR